Tracking 29790 objects as of 12-Oct-2024
HD Live streaming from Space Station
objects crossing your sky now

STARLINK-1610

Track STARLINK-1610 now!
10-day predictions
STARLINK-1610 is classified as:


NORAD ID: 46163
Int'l Code: 2020-057AY
Perigee: 552.8 km
Apogee: 555.9 km
Inclination: 53.1 °
Period: 95.6 minutes
Semi major axis: 6925 km
RCS: Unknown
Launch date: August 18, 2020
Source: United States (US)
Launch site: AIR FORCE EASTERN TEST RANGE (AFETR)
Your satellite tracking list
Your tracking list is empty




NASA's NSSDC Master Catalog

Two Line Element Set (TLE):
1 46163U 20057AY  24286.07577193 -.00005420  00000-0 -34512-3 0  9996
2 46163  53.0540  62.3181 0002285  87.6872 272.4379 15.06404934229873
Source of the keplerian elements: AFSPC